SCP
0 0 0 0 0 0 0 0 0 0 0 0 0 0 0 0 0 0 0 0 0 0 0 0 0 0 0 0 0 0 0 0 0 0 0 0 0 0 0 0 0 0 0
0 0 0 0 0 0 0 0 0 0 0 0 0 0 0 0 0 0 0 0 0 0 0 0 0 0 0 0 0 0 0 0 0 0 0 0 0 0 0 0 0 0 0
0 0 0 0 0 0 0 0 0 0 0 0 0 0 0 0 0 0 0 0 0 0 0 0 0 0 0 0 0 0 0 0 0 0 0 0 0 0 0 0 0 0 0
0 0 0 0 0 0 0 0 0 0 0 0 0 0 0 0 0 0 0 0 0 0 0 0 0 0 0 0 0 0 0 0 0 0 0 0 0 0 0 0 0 0 0
0 0 0 0 0 0 -0 -0 0 0 0 0 0 0 0 0 0 0 0 0 0 0 0 0 0 0 0 0 0 0 0 0 0 0 0 0 0 0 0 0 0 0 0
0 0 0 0 0 0 0 0 0 0 0 0 0 0 0 0 0 0 0 0 0 0 0 0 0 0 0 0 0 0 0 0 0 0 0 0 0 0 0 0 0 0 0
0 0 0 0 0 0 0 0 0 0 0 0 0 0 0 0 0 0 0 0 0 0 0 0 0 0 0 0 0 0 0 0 0 0 0 0 0 0 0 0 0 0 0
0 0 0 0 0 0 0 0 0 0 0 0 0 0 0 0 0 0 0 0 0 0 0 0 0 0 0 0 0 0 0 0 0 0 0 0 0 0 0 0 0 0 0
0 0 0 0 0 0 0 0 0 0 0 0 0 0 0 0 0 0 0 0 0 0 0 0 0 0 0 0 0 0 0 0 0 0 0 0 0 0 0 0 0 0 0
0 0 0 0 0 0 0 0 0 0 0 0 0 0 0 0 0 0 0 0 0 0 0 0 0 0 0 0 0 0 0 0 0 0 0 0 0 0 0 0 0 0 0
0 0 0 0 0 0 0 0 0 0 0 0 -0 -0 0 0 0 0 0 -0 0 0 0 0 0 0 0 0 0 0 0 0 0 0 0 0 0 0 0 0 0 0 0
0 0 0 0 0 0 0 0 0 0 0 -0 -0 -0 0 0 0 0 0 0 0 0 0 0 0 0 0 0 0 0 0 0 0 0 0 0 0 0 0 0 0 0 0
0 0 0 0 0 0 0 0 0 0 0 0 0 0 0 0 0 0 0 0 0 0 0 0 0 0 0 0 0 0 0 0 0 0 0 0 0 0 0 0 0 0 0
0 0 0 0 0 0 0 0 0 0 0 0 0 0 0 0 0 0 0 0 0 0 0 0 0 0 0 0 0 0 0 0 0 0 0 0 0 0 0 0 0 0 0
0 0 0 0 -0 -0 0 0 0 0 0 0 0 0 0 0 0 0 0 0 0 0 0 0 0 0 0 0 0 0 0 0 0 0 0 0 0 0 0 0 0 0 0
0 0 0 0 -0 0 0 0 0 0 0 0 0 0 0 0 0 0 0 0 0 0 0 0 0 0 0 0 0 0 0 0 0 0 0 0 0 0 0 0 0 0 0
0 0 0 0 0 0 0 0 0 0 0 0 0 0 0 0 0 0 0 0 0 0 0 0 0 0 0 0 0 0 0 0 0 0 0 0 0 0 0 0 0 0 0
0 0 0 0 0 0 0 0 0 0 0 0 0 0 0 0 0 0 0 0 0 0 0 0 0 0 0 0 0 0 0 0 0 0 0 0 0 0 0 0 0 0 0
0 0 0 0 0 0 0 0 0 0 0 0 0 0 0 0 0 0 0 0 0 0 0 0 0 0 0 0 0 0 0 0 0 0 0 0 0 0 0 0 0 0 0
0 0 0 0 0 0 0 0 0 0 0 0 0 0 0 0 0 0 0 0 0 0 0 0 0 0 0 0 0 0 0 0 0 0 0 0 0 0 0 0 0 0 0
0 0 0 0 0 0 0 0 0 0 0 0 0 0 0 0 0 0 0 0 0 0 0 0 0 0 0 0 0 0 0 0 0 0 0 0 0 0 0 0 0 0 0
0 0 0 0 0 0 0 0 0 0 0 0 0 0 0 0 0 0 0 0 0 0 0 0 0 0 0 0 0 0 0 0 0 0 0 0 0 0 0 0 0 0 0
0 0 0 0 0 0 0 0 0 0 0 0 0 0 0 0 0 0 0 0 0 0 0 0 0 0 0 0 0 0 0 0 0 0 0 0 0 0 0 0 0 0 0
0 0 0 0 0 0 0 0 0 0 0 0 0 0 0 0 0 0 0 0 0 0 0 0 0 0 0 0 0 0 0 0 0 0 0 0 0 0 0 0 0 0 0
0 0 0 0 0 0 0 0 0 0 0 0 0 -0 0 0 0 0 0 0 0 0 0 0 0 0 0 0 0 0 0 0 0 0 0 0 0 0 0 0 0 0 0
0 0 0 0 0 0 0 0 0 0 0 0 0 0 0 0 0 0 0 0 0 0 0 0 0 0 0 0 0 0 0 0 0 0 0 0 0 0 0 0 0 0 0
Wind_Speed
5 6 7 7 7 7 7 7 6 5 4 3 2 2 1 0 1 1 1 2 2 3 3 2 2 3 2 2 2 2 3 2 2 3 3 4 3 3 2 2 1 2 1
5 5 6 6 7 7 7 6 7 5 4 3 2 2 2 1 0 1 1 1 2 2 2 2 2 2 2 3 3 2 2 2 2 2 2 3 5 4 3 2 2 2 2
9 7 7 6 6 7 7 7 6 5 4 4 3 3 3 3 2 2 1 1 1 1 2 2 2 2 1 1 1 1 2 1 2 1 2 2 1 3 3 3 3 2 1
7 7 7 6 6 6 6 6 6 5 4 5 4 4 3 2 2 1 1 1 1 0 1 1 2 1 1 1 1 1 1 1 1 2 1 1 2 1 2 3 3 3 2
7 8 8 7 6 6 6 6 6 5 4 4 5 5 3 2 1 0 0 1 1 1 0 1 1 1 1 1 1 2 1 1 1 0 1 1 1 1 1 1 3 3 2
6 6 5 6 5 4 5 5 5 4 4 4 4 5 4 3 2 1 0 1 1 1 1 0 0 0 0 1 1 1 1 1 1 0 0 1 1 1 1 1 1 2 3
7 7 6 6 5 5 5 5 5 4 3 4 3 4 4 4 4 3 2 1 1 1 2 1 0 0 1 0 0 1 1 1 0 0 0 1 1 1 2 1 1 1 2
6 7 7 6 6 6 5 5 5 4 3 3 3 3 3 3 2 3 2 2 2 2 2 1 1 1 1 0 0 0 1 1 1 1 0 0 1 1 2 2 2 0 2
7 6 6 5 5 5 5 5 5 4 3 3 3 2 2 3 2 2 2 2 2 2 2 1 1 1 1 0 0 0 1 1 1 1 1 0 1 0 1 2 2 3 1
6 6 5 4 4 4 3 4 4 4 3 3 2 2 2 2 2 1 1 1 1 1 1 1 1 1 1 1 0 1 1 1 1 1 1 1 1 1 0 1 1 2 3
7 6 5 4 4 4 4 4 3 3 2 2 2 2 1 1 1 1 1 1 1 1 1 1 1 1 1 1 0 1 1 1 2 2 1 2 1 1 1 0 0 1 2
7 6 5 4 4 4 3 3 3 3 2 2 2 2 1 1 1 0 1 0 1 1 1 1 1 1 1 0 0 1 1 1 2 2 2 3 2 1 1 1 1 1 2
6 5 5 4 4 4 3 3 3 2 2 3 3 2 1 1 1 0 1 1 1 1 1 1 0 1 1 1 1 0 1 1 2 2 2 2 1 2 2 2 2 2 2
7 6 5 4 4 4 4 4 3 3 3 3 3 2 1 1 0 0 1 1 1 1 1 1 0 0 1 0 1 1 1 1 2 2 2 2 2 2 2 2 2 2 2
7 7 6 4 4 4 3 3 3 2 3 4 3 1 0 1 1 1 1 2 2 2 1 1 1 1 1 1 1 1 1 1 2 2 2 2 2 3 2 2 2 2 2
8 7 6 5 4 4 4 3 3 2 3 4 2 1 2 2 1 1 1 2 2 2 2 2 1 2 2 2 1 1 1 1 2 3 4 3 3 4 4 4 3 2 2
8 7 6 6 5 4 4 4 3 3 4 3 2 2 2 2 2 2 2 2 2 2 2 2 2 2 3 3 3 2 1 1 2 3 3 4 3 4 3 5 5 4 5
8 7 6 5 4 4 4 4 4 4 3 2 2 1 1 1 2 2 2 2 2 2 2 2 2 2 4 5 3 3 1 1 2 3 3 3 4 4 4 3 4 4 4
7 6 6 5 4 4 4 5 4 3 3 2 1 0 1 1 1 2 2 1 1 2 2 2 2 2 4 6 4 2 1 2 3 4 3 3 4 7 6 3 4 5 5
6 6 6 5 5 4 5 6 4 3 2 2 1 1 1 1 0 1 1 1 1 2 2 3 2 2 4 6 5 3 0 2 3 4 4 6 6 8 6 3 4 5 6
7 7 7 5 4 4 5 5 3 2 2 2 1 0 0 1 1 1 1 1 1 2 3 3 3 3 4 6 6 4 1 2 3 3 4 4 9 9 9 6 5 8 7
7 7 7 5 3 4 5 4 3 2 1 1 1 0 1 1 1 0 1 1 1 2 3 3 4 4 4 5 6 7 5 4 3 4 4 5 10 10 10 7 8 10 8
7 5 6 5 3 3 5 4 3 2 2 2 1 0 1 1 0 0 1 1 1 1 2 3 3 4 4 5 8 8 8 8 4 5 8 10 11 10 8 9 11 8 4
6 5 6 5 3 2 3 3 2 2 3 2 0 0 1 1 1 1 1 1 1 2 3 3 4 4 4 4 4 4 5 6 5 5 8 10 10 8 8 9 7 4 4
5 5 6 5 4 3 2 2 2 3 3 2 0 0 1 1 1 2 2 2 3 4 4 4 4 4 5 7 8 5 4 4 5 5 3 3 3 4 4 4 5 4 4
4 4 4 4 4 3 2 2 2 3 3 2 1 1 1 1 1 2 3 5 5 8 8 7 6 6 8 11 10 10 10 9 8 4 3 4 4 5 5 5 5 4 5
Wind_Direction
171 160 152 152 146 142 142 145 142 145 129 113 111 104 100 80 50 66 90 87 78 69 65 48 30 30 37 19 13 23 21 8 10 36 6 351 355 8 9 0 8 16 13
141 146 147 151 151 156 156 152 150 150 144 145 141 141 138 143 120 39 48 60 77 67 70 62 40 29 31 22 21 38 29 360 21 71 55 4 351 349 1 1 13 8 12
160 158 150 152 149 153 162 160 161 156 151 138 110 85 63 45 31 18 355 340 45 67 68 67 63 38 51 24 7 41 63 13 352 56 115 106 309 321 334 349 360 360 6
152 155 151 154 159 164 162 155 154 151 147 135 131 132 133 149 211 222 259 309 8 47 74 74 72 58 47 24 347 56 90 89 6 349 25 152 168 135 332 335 342 350 358
160 162 162 163 161 158 154 155 150 153 149 141 144 138 141 168 191 106 30 344 337 330 345 70 75 59 28 6 6 19 47 95 120 17 347 30 55 110 135 315 330 343 333
166 159 151 144 144 141 140 144 145 152 150 144 147 149 153 154 140 133 188 312 325 323 317 28 67 44 10 359 1 14 41 58 102 120 130 139 141 199 150 196 293 317 312
161 152 147 148 149 145 142 142 142 147 151 148 156 162 162 162 171 186 195 211 277 284 274 273 260 262 267 285 28 35 18 17 25 262 216 198 207 189 163 153 224 309 310
159 159 161 158 157 155 148 142 144 151 159 157 168 174 170 169 186 193 191 203 215 232 238 231 239 248 273 278 98 13 319 344 339 339 326 272 264 188 170 167 151 40 330
159 159 158 157 156 156 157 155 152 154 162 162 153 157 170 180 192 197 190 207 226 229 221 226 238 247 261 253 158 319 303 333 329 318 335 328 292 259 195 172 160 155 187
152 151 149 149 148 146 142 138 146 156 156 150 156 149 162 171 176 161 196 229 243 235 211 243 248 248 260 263 236 293 297 332 314 297 329 323 295 297 271 194 173 164 168
154 151 152 153 141 125 121 124 130 127 133 146 138 125 137 128 114 119 219 242 255 234 219 231 234 240 261 276 256 278 291 314 314 319 311 295 288 294 294 268 191 179 167
147 144 141 133 124 127 128 127 130 137 148 140 122 130 125 101 86 61 296 284 277 274 244 242 262 277 296 302 237 284 291 282 291 301 313 299 294 286 279 255 242 226 199
138 131 125 126 129 128 124 123 129 134 123 111 105 97 90 88 80 336 319 341 346 356 10 52 38 302 308 316 286 288 311 295 277 275 270 283 290 282 275 255 246 243 230
142 137 135 136 135 132 129 124 119 115 107 100 96 90 82 98 128 355 6 4 6 19 11 24 20 311 302 314 312 323 323 323 308 290 269 268 246 247 256 257 253 246 241
146 148 148 147 139 132 129 124 120 113 107 98 87 76 33 36 40 24 10 7 15 13 9 19 2 343 334 329 323 311 320 321 321 316 297 280 278 266 251 251 245 232 235
152 151 148 145 145 145 141 133 127 124 111 105 100 74 53 42 32 18 18 16 4 356 6 359 341 337 345 339 334 337 302 304 305 304 302 296 291 295 286 280 261 220 215
157 157 157 157 162 166 157 150 147 121 107 104 89 69 58 41 19 22 33 11 354 359 351 337 334 319 313 334 347 346 339 302 290 289 296 305 310 304 292 291 288 268 254
160 160 157 156 158 147 138 134 118 114 112 103 88 69 62 40 22 29 17 347 346 348 327 321 320 310 314 325 327 332 352 327 309 293 278 279 290 296 290 280 285 279 272
156 154 152 145 136 134 134 121 111 109 106 109 116 111 93 64 33 8 328 317 336 330 313 308 313 306 303 319 325 340 331 309 305 305 299 289 282 298 301 281 276 282 283
139 138 134 122 125 135 128 116 118 119 148 195 207 201 157 145 194 283 296 310 313 301 312 316 309 294 289 306 316 321 255 290 298 303 299 294 295 300 300 276 265 273 278
136 134 130 129 142 142 125 122 130 167 208 208 194 219 254 228 226 275 312 323 321 331 329 318 309 303 293 299 305 305 255 257 281 292 292 291 300 299 293 280 254 262 274
132 134 131 133 138 136 130 132 167 206 185 143 119 346 309 306 13 360 323 331 337 332 323 317 313 305 299 289 294 296 282 275 256 268 271 278 291 293 295 286 275 279 283
140 135 136 136 140 145 140 148 194 180 145 120 108 342 344 333 338 230 299 321 328 315 305 307 300 301 302 298 296 295 294 285 267 264 274 282 286 290 290 283 281 281 265
144 139 137 140 152 164 157 169 174 149 131 130 174 300 342 330 326 297 261 272 286 294 296 293 288 291 296 294 289 281 285 284 283 282 286 289 285 279 277 285 283 263 248
147 146 151 158 172 173 169 174 158 132 126 135 177 295 297 274 288 289 270 259 250 247 263 265 266 276 286 281 281 282 275 272 269 288 291 292 291 285 281 279 274 266 263
138 142 151 159 171 169 175 186 170 151 147 155 203 239 269 282 288 299 312 296 282 290 286 283 285 279 277 291 294 288 283 284 286 289 279 279 275 271 273 274 275 268 261